TimeMDT,TemperatureF,Dew PointF,Humidity,Sea Level PressureIn,VisibilityMPH,Wind Direction,Wind SpeedMPH,Gust SpeedMPH,PrecipitationIn,Events,Conditions,WindDirDegrees,DateUTC
12:15 AM,65.7,35.2,32,29.89,10.0,East,12.7,-,N/A,,Mostly Cloudy,80,2013-05-16 06:15:00
12:35 AM,65.7,34.9,32,29.88,10.0,East,12.7,-,N/A,,Scattered Clouds,80,2013-05-16 06:35:00
12:55 AM,65.5,35.1,32,29.88,10.0,East,13.8,-,N/A,,Clear,80,2013-05-16 06:55:00
1:15 AM,65.3,35.1,33,29.88,10.0,East,12.7,-,N/A,,Clear,90,2013-05-16 07:15:00
1:35 AM,64.4,35.2,34,29.87,10.0,East,10.4,-,N/A,,Clear,80,2013-05-16 07:35:00
1:55 AM,63.5,35.6,35,29.86,10.0,East,9.2,-,N/A,,Clear,80,2013-05-16 07:55:00
2:15 AM,62.8,36.0,37,29.85,10.0,East,10.4,-,N/A,,Clear,80,2013-05-16 08:15:00
2:35 AM,61.9,36.5,39,29.85,10.0,East,10.4,-,N/A,,Clear,80,2013-05-16 08:35:00
2:55 AM,61.7,36.9,40,29.85,10.0,East,6.9,-,N/A,,Clear,90,2013-05-16 08:55:00
3:15 AM,61.3,37.0,40,29.84,10.0,ENE,6.9,-,N/A,,Clear,70,2013-05-16 09:15:00
3:35 AM,61.7,37.4,41,29.84,10.0,East,6.9,-,N/A,,Clear,80,2013-05-16 09:35:00
3:55 AM,61.7,38.3,42,29.85,10.0,East,3.5,-,N/A,,Mostly Cloudy,100,2013-05-16 09:55:00
4:15 AM,61.0,38.7,44,29.84,10.0,ENE,4.6,-,N/A,,Mostly Cloudy,70,2013-05-16 10:15:00
4:35 AM,61.2,39.0,44,29.84,10.0,ENE,4.6,-,N/A,Thunderstorm,Overcast,60,2013-05-16 10:35:00
4:55 AM,59.2,44.2,58,29.84,10.0,North,4.6,-,N/A,Rain,Rain,10,2013-05-16 10:55:00
5:15 AM,58.1,44.6,61,29.83,10.0,Calm,Calm,-,N/A,Thunderstorm,Mostly Cloudy,0,2013-05-16 11:15:00
5:35 AM,57.9,46.2,65,29.86,10.0,WSW,5.8,-,N/A,Thunderstorm,Thunderstorm,240,2013-05-16 11:35:00
5:55 AM,56.7,48.2,73,29.85,-9999.0,North,5.8,-,0.03,Thunderstorm,Thunderstorm,360,2013-05-16 11:55:00
6:15 AM,55.0,48.4,78,29.82,4.0,North,13.8,-,0.15,Rain-Thunderstorm,Heavy Thunderstorms and Rain,10,2013-05-16 12:15:00
6:35 AM,54.9,50.4,85,29.82,10.0,ENE,8.1,-,0.15,,Mostly Cloudy,60,2013-05-16 12:35:00
6:55 AM,54.5,49.1,82,29.83,10.0,East,9.2,-,0.15,,Mostly Cloudy,80,2013-05-16 12:55:00
7:15 AM,54.9,49.8,83,29.84,10.0,SSE,3.5,-,N/A,,Overcast,160,2013-05-16 13:15:00
7:35 AM,55.0,50.0,83,29.85,10.0,Calm,Calm,-,N/A,Rain,Light Rain,0,2013-05-16 13:35:00
7:55 AM,54.7,51.3,88,29.86,5.0,SW,3.5,-,0.03,Rain,Rain,220,2013-05-16 13:55:00
8:15 AM,54.9,51.3,88,29.87,10.0,South,4.6,-,0.01,Rain,Light Rain,180,2013-05-16 14:15:00
8:35 AM,56.7,52.9,87,29.87,10.0,Calm,Calm,-,0.01,Thunderstorm,Thunderstorm,0,2013-05-16 14:35:00
8:55 AM,57.7,52.2,82,29.88,10.0,ESE,5.8,-,0.01,Thunderstorm,Overcast,110,2013-05-16 14:55:00
9:15 AM,58.3,52.0,80,29.88,10.0,ESE,4.6,-,N/A,,Overcast,120,2013-05-16 15:15:00
9:35 AM,59.9,53.6,80,29.87,10.0,ESE,3.5,-,N/A,,Mostly Cloudy,110,2013-05-16 15:35:00
9:55 AM,61.5,52.5,72,29.87,10.0,ESE,6.9,-,N/A,,Scattered Clouds,120,2013-05-16 15:55:00
10:15 AM,63.5,53.4,70,29.87,10.0,East,5.8,-,N/A,,Clear,100,2013-05-16 16:15:00
10:35 AM,64.9,55.4,71,29.87,10.0,ESE,6.9,-,N/A,,Clear,110,2013-05-16 16:35:00
10:55 AM,66.6,56.3,69,29.86,10.0,East,6.9,-,N/A,,Clear,100,2013-05-16 16:55:00
11:15 AM,68.4,57.0,67,29.86,10.0,East,8.1,-,N/A,,Clear,90,2013-05-16 17:15:00
11:35 AM,70.2,57.4,64,29.85,10.0,East,6.9,-,N/A,,Clear,100,2013-05-16 17:35:00
11:55 AM,70.9,57.0,61,29.84,10.0,East,9.2,-,N/A,,Clear,80,2013-05-16 17:55:00
12:15 PM,72.3,56.5,57,29.83,10.0,East,10.4,-,N/A,,Clear,100,2013-05-16 18:15:00
12:35 PM,72.0,56.5,58,29.83,10.0,East,8.1,-,N/A,,Clear,80,2013-05-16 18:35:00
1:15 PM,68.0,56.5,67,29.83,7.0,Calm,Calm,-,0.02,Rain-Thunderstorm,Light Thunderstorms and Rain,0,2013-05-16 19:15:00
1:35 PM,69.3,59.5,71,29.82,10.0,West,3.5,-,0.02,,Overcast,260,2013-05-16 19:35:00
1:55 PM,70.7,57.7,63,29.81,10.0,Calm,Calm,-,0.02,,Mostly Cloudy,0,2013-05-16 19:55:00
2:15 PM,71.6,59.2,65,29.81,10.0,West,4.6,-,N/A,,Mostly Cloudy,260,2013-05-16 20:15:00
2:35 PM,70.7,60.3,69,29.76,10.0,SSE,8.1,-,N/A,Rain,Light Rain,160,2013-05-16 20:35:00
2:55 PM,73.6,59.9,62,29.78,10.0,South,5.8,-,N/A,,Scattered Clouds,180,2013-05-16 20:55:00
3:15 PM,75.4,56.1,51,29.77,10.0,South,6.9,-,N/A,Thunderstorm,Clear,180,2013-05-16 21:15:00
3:35 PM,74.5,55.6,52,29.77,10.0,SSW,9.2,-,N/A,,Clear,210,2013-05-16 21:35:00
4:15 PM,76.8,55.6,48,29.77,10.0,SSE,12.7,-,N/A,,Clear,150,2013-05-16 22:15:00
4:35 PM,75.0,53.8,47,29.78,10.0,SSE,11.5,-,N/A,,Clear,160,2013-05-16 22:35:00
4:55 PM,75.9,53.2,45,29.78,10.0,SE,9.2,-,N/A,,Clear,140,2013-05-16 22:55:00
5:15 PM,75.6,53.1,45,29.78,10.0,SE,9.2,-,N/A,,Clear,140,2013-05-16 23:15:00
5:35 PM,75.4,54.1,48,29.78,10.0,SE,6.9,-,N/A,,Clear,140,2013-05-16 23:35:00
5:55 PM,74.3,54.7,50,29.78,10.0,SSE,8.1,-,N/A,,Clear,150,2013-05-16 23:55:00
6:15 PM,73.4,54.5,51,29.78,10.0,SSE,8.1,-,N/A,,Clear,160,2013-05-17 00:15:00
6:35 PM,72.0,54.3,54,29.78,10.0,SSE,8.1,-,N/A,,Clear,160,2013-05-17 00:35:00
6:55 PM,70.9,54.9,57,29.78,10.0,SSE,9.2,-,N/A,,Clear,160,2013-05-17 00:55:00
7:15 PM,70.0,54.7,58,29.77,10.0,SSE,8.1,-,N/A,,Clear,150,2013-05-17 01:15:00
7:35 PM,69.1,54.9,60,29.77,10.0,East,8.1,-,N/A,,Clear,100,2013-05-17 01:35:00
7:55 PM,68.4,54.0,60,29.77,10.0,ESE,8.1,-,N/A,,Clear,120,2013-05-17 01:55:00
8:15 PM,67.5,53.4,61,29.78,10.0,ESE,4.6,-,N/A,,Clear,110,2013-05-17 02:15:00
8:35 PM,65.8,53.8,65,29.80,10.0,East,4.6,-,N/A,,Clear,80,2013-05-17 02:35:00
8:55 PM,65.1,53.8,67,29.81,10.0,SE,5.8,-,N/A,,Clear,140,2013-05-17 02:55:00
9:15 PM,63.7,53.8,70,29.83,10.0,East,4.6,-,N/A,,Clear,100,2013-05-17 03:15:00
9:35 PM,63.0,53.6,71,29.84,10.0,ENE,5.8,-,N/A,,Clear,70,2013-05-17 03:35:00
9:55 PM,62.8,52.3,69,29.85,10.0,East,4.6,-,N/A,,Clear,90,2013-05-17 03:55:00
10:15 PM,62.2,52.3,70,29.85,10.0,ESE,4.6,-,N/A,,Clear,110,2013-05-17 04:15:00
10:35 PM,61.2,52.9,74,29.87,10.0,Calm,Calm,-,N/A,,Scattered Clouds,0,2013-05-17 04:35:00
10:55 PM,61.7,53.1,73,29.90,10.0,West,11.5,-,N/A,,Mostly Cloudy,280,2013-05-17 04:55:00
11:15 PM,61.0,54.0,78,29.88,10.0,WSW,6.9,-,N/A,,Light Drizzle,240,2013-05-17 05:15:00
11:35 PM,61.2,54.5,79,29.88,10.0,Calm,Calm,-,N/A,,Mostly Cloudy,0,2013-05-17 05:35:00
11:55 PM,60.8,55.2,82,29.87,10.0,East,3.5,-,N/A,,Overcast,100,2013-05-17 05:55:00